Location: New York
(40.7127°N, 74.0060°W)
Time: 21:19:20
(UTC-04:00)

STRAND 1 - Visible Passes

Search period start: 11 September 2024 00:00
Search period end: 21 September 2024 00:00
Orbit: 764 x 777 km, 98.4° (Epoch: 11 September)

Date Brightness Start Highest point End Pass type
(mag) Time Alt. Az. Time Alt. Az. Time Alt. Az.
11 Sep ? 05:29:12 10° SE 05:33:28 28° ENE 05:37:45 10° N visible
11 Sep ? 20:58:30 10° NNW 21:00:44 13° WNW 21:02:59 10° W visible
12 Sep ? 04:56:14 10° E 04:58:45 14° ENE 05:01:17 10° NNE visible
12 Sep ? 20:21:51 10° NNW 20:26:03 26° WNW 20:30:14 10° WSW visible
13 Sep ? 05:57:15 10° SE 06:02:08 51° ENE 06:07:04 10° N visible
13 Sep ? 19:46:10 10° N 19:51:09 53° WNW 19:56:08 10° SSW visible
14 Sep ? 05:23:12 10° ESE 05:27:16 25° ENE 05:31:21 10° NNE visible
14 Sep ? 20:51:49 10° NNW 20:54:34 15° WNW 20:57:19 10° W visible
15 Sep ? 04:50:37 10° E 04:52:35 12° ENE 04:54:33 10° NE visible
15 Sep ? 20:15:26 10° N 20:19:50 29° WNW 20:24:13 10° SW visible
16 Sep ? 05:51:06 10° SE 05:55:54 44° ENE 06:00:44 10° N visible
16 Sep ? 19:39:50 10° N 19:44:54 61° WNW 19:49:57 10° SSW visible
17 Sep ? 05:17:13 10° ESE 05:21:02 22° ENE 05:24:53 10° NNE visible
17 Sep ? 20:45:12 10° NNW 20:48:22 17° WNW 20:51:31 10° W visible
18 Sep ? 04:45:16 10° ENE 04:46:22 11° ENE 04:47:28 10° NE visible
18 Sep ? 20:09:01 10° N 20:13:35 33° WNW 20:18:07 10° SW visible
19 Sep ? 05:44:56 10° SE 05:49:37 39° ENE 05:54:21 10° N visible
19 Sep ? 19:33:29 10° N 19:38:37 70° WNW 19:43:42 10° SSW visible
20 Sep ? 05:11:14 10° ESE 05:14:48 20° ENE 05:18:22 10° NNE visible
20 Sep ? 20:38:36 10° NNW 20:42:07 19° WNW 20:45:37 10° WSW visible
